CW7056 Olongapo City PH current weather conditions

sailwx.info

Wind from 043 at 1 knots gusting 6

Air temperature 33.9° C
Dewpoint 22.3° C

Last reported at 2015-Apr-25 07:49 UTC.
Time now 2015-Apr-25 08:52 UTC

Location: N 14°51' E 120°16'.
View on Google Maps.

See reports from other nearby stations

  
Tides and Currents Weather Stations Pressure Air Temp Water Temp Dewpoint Dewpoint Depression Visibility Wind Speed Wind Dir Waves Ship Positions
date/time (UTC)wind fromknots sea level pressurealtimeterstation pressurevisibilityair tempwater tempwave heightnotes
2015-Apr-25 07:49 043 1 gusting 6 33.9
2015-Apr-25 07:39 028 3 gusting 7 33.9
2015-Apr-25 07:29 070 2 gusting 10 34.4
2015-Apr-25 07:19 080 4 gusting 10 34.4
2015-Apr-25 07:09 356 4 gusting 8 34.4
2015-Apr-25 06:59 009 2 gusting 8 35.6
2015-Apr-25 06:49 095 3 gusting 9 36.1
2015-Apr-25 06:37 085 1 gusting 8 35.6
2015-Apr-25 06:25 111 3 gusting 8 35.0
2015-Apr-25 06:15 091 4 gusting 9 35.0
2015-Apr-25 06:05 084 3 gusting 10 35.6
2015-Apr-25 05:54 042 5 gusting 9 34.4
2015-Apr-25 05:44 036 2 gusting 12 34.4
2015-Apr-25 05:34 007 5 gusting 12 33.9
2015-Apr-25 05:24 011 5 gusting 10 35.0
2015-Apr-25 05:14 057 5 gusting 10 33.3
2015-Apr-25 05:04 139 2 gusting 10 33.9
2015-Apr-25 04:54 016 3 gusting 13 33.3
2015-Apr-25 04:44 350 2 gusting 13 33.9
2015-Apr-25 04:33 156 5 gusting 11 33.9
2015-Apr-25 04:22 011 3 gusting 8 32.8
2015-Apr-25 04:12 084 2 gusting 8 32.8
2015-Apr-25 03:50 104 3 gusting 12 33.3
2015-Apr-25 03:39 075 4 gusting 12 33.3
2015-Apr-25 03:29 082 1 gusting 13 33.3
2015-Apr-25 03:17 035 2 gusting 13 32.8
2015-Apr-25 03:07 116 3 gusting 11 32.8
2015-Apr-25 02:56 047 4 gusting 9 32.8
2015-Apr-25 02:44 353 3 gusting 9 32.2
2015-Apr-25 02:33 078 2 gusting 13 32.2
2015-Apr-25 02:23 010 1 gusting 18 32.8
2015-Apr-25 02:13 068 6 gusting 18 32.2
2015-Apr-25 02:02 054 3 gusting 9 33.3
2015-Apr-25 01:52 107 1 gusting 8 32.2
2015-Apr-25 01:42 080 2 gusting 10 31.1
2015-Apr-25 01:32 014 5 gusting 10 31.1
2015-Apr-25 01:22 055 4 gusting 9 31.1
2015-Apr-25 01:12 012 2 gusting 10 30.6
2015-Apr-25 01:01 102 3 gusting 10 30.6
2015-Apr-25 00:51 019 4 gusting 8 30.6
2015-Apr-25 00:41 113 1 gusting 7 30.6
2015-Apr-25 00:31 110 5 gusting 7 30.6
2015-Apr-25 00:21 004 2 gusting 6 31.1
2015-Apr-25 00:11 011 2 gusting 6 30.6
2015-Apr-25 00:00 040 1 gusting 3 30.0
2015-Apr-24 23:50 153 30.0
2015-Apr-24 23:40 153 1 gusting 7 29.4
2015-Apr-24 23:30 150 1 gusting 4 28.9
2015-Apr-24 23:20 150 0 gusting 3 28.9
2015-Apr-24 23:10 061 28.3
2015-Apr-24 22:59 059 27.8
2015-Apr-24 22:49 059 26.7
2015-Apr-24 22:39 059 0 gusting 1 26.1
2015-Apr-24 22:28 059 26.1
2015-Apr-24 22:18 059 25.6
2015-Apr-24 22:08 059 25.6
2015-Apr-24 21:58 059 26.1
2015-Apr-24 21:48 059 26.1
2015-Apr-24 21:38 059 26.1
2015-Apr-24 21:28 059 1 gusting 2 26.1
2015-Apr-24 21:17 059 0 gusting 0 26.1
2015-Apr-24 21:07 059 0 gusting 1 26.1
2015-Apr-24 20:57 059 26.1
2015-Apr-24 20:45 059 26.1
2015-Apr-24 20:35 059 26.1
2015-Apr-24 20:25 067 1 gusting 2 26.1
2015-Apr-24 20:13 072 26.7
2015-Apr-24 20:03 072 26.7
2015-Apr-24 19:53 072 0 gusting 3 26.7
2015-Apr-24 19:42 072 1 gusting 3 26.7
2015-Apr-24 19:32 070 1 gusting 4 26.7
2015-Apr-24 19:22 074 2 gusting 4 27.2
2015-Apr-24 19:12 066 1 gusting 3 27.2
2015-Apr-24 19:02 074 0 gusting 4 27.2
2015-Apr-24 18:52 059 1 gusting 4 26.7
2015-Apr-24 18:42 067 0 gusting 1 26.7
2015-Apr-24 18:32 067 0 gusting 1 26.7
2015-Apr-24 18:22 067 0 gusting 1 26.7
2015-Apr-24 18:12 067 27.2
2015-Apr-24 18:02 067 27.2
2015-Apr-24 17:52 067 27.2
2015-Apr-24 17:42 067 0 gusting 2 27.2
2015-Apr-24 17:31 066 1 gusting 3 27.8
2015-Apr-24 17:21 070 1 gusting 4 27.8
2015-Apr-24 17:11 077 1 gusting 2 27.8
2015-Apr-24 17:00 084 1 gusting 2 27.8
2015-Apr-24 16:50 085 0 gusting 4 27.8
2015-Apr-24 16:40 087 1 gusting 4 27.8
2015-Apr-24 16:29 080 2 gusting 4 27.8
2015-Apr-24 16:19 067 1 gusting 4 27.8
2015-Apr-24 16:08 081 1 gusting 4 27.8
2015-Apr-24 15:58 076 1 gusting 4 28.3
2015-Apr-24 15:48 038 0 gusting 2 28.3
2015-Apr-24 15:38 028 0 gusting 2 28.3
2015-Apr-24 15:28 021 1 gusting 2 27.8
2015-Apr-24 15:18 020 0 gusting 2 27.8
2015-Apr-24 15:08 017 0 gusting 2 27.8
2015-Apr-24 14:58 017 0 gusting 1 27.8
2015-Apr-24 14:48 017 0 gusting 1 28.3
2015-Apr-24 14:37 017 0 gusting 2 27.8
2015-Apr-24 14:27 017 0 gusting 2 28.3
2015-Apr-24 14:17 017 28.3
2015-Apr-24 14:07 017 0 gusting 1 28.3
2015-Apr-24 13:56 017 28.9
2015-Apr-24 13:46 017 29.4
2015-Apr-24 13:36 017 28.9
2015-Apr-24 13:26 017 0 gusting 2 28.9
2015-Apr-24 13:16 017 28.9
2015-Apr-24 13:04 017 28.9
2015-Apr-24 12:54 017 1 gusting 2 28.9
2015-Apr-24 12:41 016 28.9
2015-Apr-24 12:31 016 0 gusting 2 28.9
2015-Apr-24 12:21 016 0 gusting 3 28.9
2015-Apr-24 12:11 016 1 gusting 3 29.4
2015-Apr-24 12:01 016 29.4
2015-Apr-24 11:51 032 1 gusting 4 29.4
2015-Apr-24 11:40 028 0 gusting 4 29.4
2015-Apr-24 11:30 034 30.0
2015-Apr-24 11:20 028 0 gusting 2 30.0
2015-Apr-24 11:10 017 1 gusting 3 30.0
2015-Apr-24 11:00 012 30.6
2015-Apr-24 10:49 074 1 gusting 4 30.6
2015-Apr-24 10:39 012 0 gusting 3 30.6
2015-Apr-24 10:28 020 1 gusting 6 31.1
2015-Apr-24 10:18 024 2 gusting 6 31.1
2015-Apr-24 10:08 346 1 gusting 5 31.7
2015-Apr-24 09:58 350 0 gusting 5 31.7
2015-Apr-24 09:47 292 1 gusting 6 31.7
2015-Apr-24 09:37 006 2 gusting 6 32.2
2015-Apr-24 09:25 022 2 gusting 5 32.8
2015-Apr-24 09:15 019 1 gusting 5 32.8
2015-Apr-24 09:05 349 0 gusting 6 33.3
2015-Apr-24 08:55 011 1 gusting 6 33.3
2015-Apr-24 08:45 015 2 gusting 6 33.9
2015-Apr-24 08:35 302 1 gusting 6 33.9
2015-Apr-24 08:25 011 3 gusting 8 34.4
2015-Apr-24 08:14 053 1 gusting 6 35.0
2015-Apr-24 08:04 331 0 gusting 5 35.0
2015-Apr-24 07:54 336 35.0
2015-Apr-24 07:44 340 2 gusting 11 35.0
2015-Apr-24 07:34 016 6 gusting 11 35.6
2015-Apr-24 07:24 039 2 gusting 6 35.6
2015-Apr-24 07:13 074 35.6
2015-Apr-24 07:02 016 3 gusting 7 35.0
2015-Apr-24 06:51 011 1 gusting 6 35.0
2015-Apr-24 06:41 018 2 gusting 10 36.7
2015-Apr-24 04:53 106 2 gusting 11 35.0
2015-Apr-24 04:43 033 2 gusting 11 35.0
2015-Apr-24 04:33 093 4 gusting 10 35.6
2015-Apr-24 04:22 293 1 gusting 8 35.6
2015-Apr-24 04:12 098 2 gusting 9 35.6
2015-Apr-24 03:00 042 3 gusting 13 34.4
2015-Apr-24 02:50 035 1 gusting 13 33.9
2015-Apr-24 02:40 052 2 gusting 17 33.9
2015-Apr-24 02:30 059 3 gusting 18 33.9
2015-Apr-24 02:20 032 2 gusting 11 33.9
2015-Apr-24 02:09 148 6 gusting 11 33.9
2015-Apr-24 00:57 069 6 gusting 10 31.7
2015-Apr-24 00:46 352 4 gusting 11 31.7
2015-Apr-24 00:36 338 4 gusting 11 31.1
2015-Apr-24 00:26 043 3 gusting 11 31.7
2015-Apr-24 00:15 042 2 gusting 7 31.1
2015-Apr-24 00:05 023 3 gusting 6 30.6
2015-Apr-23 22:54 053 0 gusting 2 28.3
2015-Apr-23 22:44 052 0 gusting 2 27.2
2015-Apr-23 22:34 052 1 gusting 2 26.7
2015-Apr-23 22:23 052 0 gusting 0 26.7
2015-Apr-23 22:12 052 27.2
2015-Apr-23 21:01 109 0 gusting 2 26.7
2015-Apr-23 20:50 026 26.7
2015-Apr-23 20:40 026 26.1
2015-Apr-23 20:29 026 26.1
2015-Apr-23 20:19 026 26.1
2015-Apr-23 20:09 026 25.6
2015-Apr-23 18:56 025 0 gusting 1 25.6
2015-Apr-23 18:46 025 25.6
2015-Apr-23 18:36 025 25.6
2015-Apr-23 18:26 024 0 gusting 3 25.6
2015-Apr-23 18:15 024 25.6
2015-Apr-23 18:05 032 1 gusting 1 25.6
2015-Apr-23 16:53 032 0 gusting 1 26.1
2015-Apr-23 16:43 032 0 gusting 1 26.1
2015-Apr-23 16:33 032 0 gusting 2 26.1
2015-Apr-23 16:23 032 26.1
2015-Apr-23 16:13 032 26.7
2015-Apr-23 15:01 030 27.2
2015-Apr-23 14:51 030 27.2
2015-Apr-23 14:41 022 1 gusting 2 27.2
2015-Apr-23 14:30 005 27.2
2015-Apr-23 14:20 005 27.2
2015-Apr-23 14:10 005 27.8
2015-Apr-23 12:58 303 28.9
2015-Apr-23 12:48 297 2 gusting 2 28.9
2015-Apr-23 12:37 272 28.9
2015-Apr-23 12:02 036 29.4
2015-Apr-23 11:52 026 1 gusting 6 29.4
2015-Apr-23 11:40 049 1 gusting 6 29.4
2015-Apr-23 11:30 039 1 gusting 6 29.4
2015-Apr-23 11:19 041 1 gusting 7 29.4
2015-Apr-23 11:09 085 2 gusting 10 29.4
2015-Apr-23 09:58 112 6 gusting 13 30.6
2015-Apr-23 09:48 065 4 gusting 14 30.6
2015-Apr-23 09:38 058 7 gusting 14 31.1
2015-Apr-23 09:28 052 5 gusting 13 31.1
2015-Apr-23 09:18 029 4 gusting 12 31.7
2015-Apr-23 09:08 039 4 gusting 15 31.7